Location: Nashville
(36.1660°N, 86.7840°W)
Time: 08:00:23
(UTC-05:00)

EO-88 - Pass Details

Date: 24 May 2022
Orbit: 457 x 464 km, 97.3° (Epoch: 27 June)

Event Time Altitude Azimuth Distance (km) Brightness Sun altitude
Exits shadow 22:52:17 26° 297° (WNW) 956 ? -27.1°
Drops below altitude 10° 22:54:22 10° 327° (NNW) 1,620 ? -27.3°
Sets 22:56:35 0° 338° (NNW) 2,502 ? -27.5°
